User: anonymous   Login
Location: Nairn
(57.5833°N, 3.8667°W)
Time: 07:43:58
(UTC+00:00)
Language:

Okean 2 Rocket - Orbit

View from above orbital plane
View from above orbital plane
View from above satellite
View from above satellite

Ground track
Ground track

The orbit data is extracted from the following two-line orbital elements,

1 20511U 90018B   20295.28794434 +.00000090 +00000-0 +87806-5 0  9999
2 20511 082.5220 255.9400 0018931 067.2814 046.3714 14.80051098631725
Epoch (UTC): 21 October 2020 06:54:38
Eccentricity: 0.0018931
inclination: 82.5220°
perigee height: 616 km
apogee height: 642 km
right ascension of ascending node: 255.9400°
argument of perigee: 67.2814°
revolutions per day: 14.80051098
mean anomaly at epoch: 46.3714°
orbit number at epoch: 63172

The dashed part of the orbit path shows where the satellite is in the earth's shadow,  

DLR